Location: Leeds
(37.2390°N, 113.3580°W)
Time: 16:28:27
(UTC-06:00)

Daily predictions for brighter satellites

Satellite Brightness Start Highest point End
(mag) Time Altitude Azimuth Time Altitude Azimuth Time Altitude Azimuth
Meteor 1-5 Rocket 4.2 20:22:38 10° S 20:27:52 62° E 20:33:16 10° NNE
Meteor 2-16 Rocket 4.5 20:23:20 10° S 20:29:18 62° E 20:35:17 10° NNE
Helios 1A 3.0 20:25:53 10° SSE 20:30:02 76° ENE 20:34:14 10° N
Cosmos 1777 Rocket 4.2 20:29:11 10° NNW 20:34:28 81° WSW 20:39:44 10° SSE
Cosmos 1536 4.2 20:32:40 10° SSW 20:36:30 45° W 20:40:23 10° N
Cosmos 1461 2.8 20:35:33 10° NNW 20:39:35 64° ENE 20:43:27 10° SE
SL-24 R/B - RUBIN 2 4.4 20:37:17 10° SSW 20:42:52 59° ESE 20:49:08 10° NE
NOSS 3-4 (A) 3.9 20:38:23 10° NNW 20:45:30 90° WSW 20:53:02 10° SSE
NOSS 3-4 (C) 3.9 20:38:31 10° NNW 20:45:38 90° NE 20:53:09 10° SSE
CZ-4B DEB 2.9 20:42:30 10° SSE 20:45:42 57° ENE 20:48:56 10° N
Tiangong 1 2.6 20:44:55 10° WNW 20:47:41 28° N 20:50:26 10° ENE
Cosmos 1821 Rocket 4.4 20:46:40 10° SSW 20:52:43 68° W 20:58:48 10° N
RESURS DK-1 4.2 20:50:49 10° NNE 20:53:30 16° NE 20:55:34 12° E
Spot 2 Rocket 4.2 20:50:31 10° S 20:55:31 57° W 21:00:32 10° NNW
Cosmos 1605 Rocket 4.0 20:49:34 10° S 20:55:53 72° E 21:02:08 10° N
Cosmos 1697 Rocket 2.9 20:53:37 10° S 20:58:57 45° ESE 21:04:19 10° NE
Cosmos 1626 Rocket 3.7 20:58:49 10° N 21:03:06 51° E 21:07:18 10° SSE
Iridium 4 Rocket 3.7 20:59:50 10° NNE 21:04:31 42° E 21:08:47 10° SSE
Cosmos 1455 Rocket 3.7 21:01:07 10° SSW 21:05:22 58° W 21:09:41 10° N
Envisat 4.3 21:03:38 16° ESE 21:06:11 22° ENE 21:10:03 10° NNE
Cosmos 2084 4.0 21:03:23 10° NNW 21:07:15 39° NE 21:09:46 20° ESE
Cosmos 2298 Rocket 4.4 21:03:20 10° N 21:08:27 45° ENE 21:12:23 16° SE
Cosmos 1937 Rocket 4.4 21:04:47 10° N 21:09:26 30° ENE 21:12:16 19° ESE
Cosmos 1602 Rocket 3.5 21:08:29 10° N 21:12:56 67° E 21:17:18 10° SSE
H-2A R/B 2.7 21:11:12 10° SSE 21:15:04 90° E 21:19:02 10° NNW
Cosmos 2061 Rocket 4.5 21:10:24 10° SSE 21:16:10 39° E 21:21:53 10° NNE
Cosmos 220 Rocket 3.8 21:12:18 10° NNW 21:16:32 76° ENE 21:19:53 16° SSE
Lacrosse 5 2.5 21:16:43 10° NNW 21:21:31 40° NE 21:24:05 23° E
Cosmos 1980 Rocket 2.5 21:17:13 10° S 21:22:30 43° ESE 21:27:51 10° NE
Cosmos 1975 3.1 21:20:09 10° SSW 21:24:14 73° W 21:28:21 10° N
SPOT 5 4.2 21:28:37 21° E 21:29:27 22° ENE 21:33:10 10° NNE
ERS-1 Rocket 3.2 21:28:22 25° SE 21:31:04 50° ENE 21:35:55 10° N
CZ-3C R/B 4.0 20:38:07 10° W 21:31:38 39° SSW 21:38:25 18° SSE
Lacrosse 5 rocket 1.7 21:28:27 10° NW 21:32:01 47° SW 21:33:43 25° S
Cosmos 2150 Rocket 3.9 21:29:00 10° NNW 21:34:09 68° ENE 21:37:01 26° SSE
Cosmos 1459 Rocket 4.0 21:28:47 10° SSE 21:34:40 57° E 21:40:37 10° NNE
FENGYUN 3A 4.5 21:33:52 10° S 21:39:01 50° W 21:44:13 10° NNW
CZ-4 DEB 2.6 21:40:10 65° ESE 21:40:20 67° ENE 21:43:28 10° N
Cosmos 1656 4.4 21:36:52 10° SW 21:42:21 54° WNW 21:47:48 10° NNE
SJ-11-01 4.2 21:40:05 29° SSE 21:42:27 72° ENE 21:47:07 10° N
Cosmos 1763 Rocket 3.5 21:38:24 10° S 21:43:19 51° ESE 21:48:14 10° NNE
Resurs 01 Rocket 4.5 21:41:03 10° SW 21:43:43 16° W 21:46:24 10° NW
Cosmos 1606 Rocket 3.8 21:43:37 42° ESE 21:44:03 44° E 21:48:15 10° NNE
Cosmos 1500 3.6 21:40:52 10° SSW 21:44:34 62° W 21:48:19 10° N
Cosmos 1898 Rocket 3.5 21:44:44 10° NNW 21:50:02 80° WSW 21:52:53 28° S
Cosmos 2263 Rocket 4.2 21:48:21 10° NNE 21:50:11 11° NE 21:50:51 11° ENE
DELTA 2 R/B (1) 3.7 21:46:32 10° WNW 21:52:03 65° SSW 21:53:52 41° SE
Cosmos 2227 Rocket 3.8 21:49:31 10° NW 21:54:24 31° WSW 21:59:17 10° SSW
Cosmos 1340 3.2 21:52:08 10° N 21:55:15 45° NE 21:55:15 45° NE
Cosmos 2322 Rocket 3.6 21:58:39 21° ENE 21:58:39 21° ENE 22:00:56 10° NE
USA 186 4.2 21:55:35 10° SW 21:57:52 19° W 22:00:07 10° NW
OAO 2 Rocket 3.3 21:55:58 10° W 22:00:58 67° S 22:01:47 56° SE
Cosmos 1939 Rocket 2.8 22:00:58 65° SSE 22:01:34 88° ENE 22:05:45 10° NNW
OTV 4 3.1 22:00:38 10° WSW 22:01:32 14° SW 22:01:32 14° SW
Milstar 3 Cent rocket 4.3 21:42:39 10° W 22:04:57 58° SSW 22:10:48 34° SE
Cosmos 841 Rocket 3.3 22:03:13 21° S 22:06:48 76° ESE 22:12:01 10° NNE
Cosmos 1726 Rocket 3.5 22:07:22 65° ENE 22:07:22 65° ENE 22:11:25 10° NNE
Meteor 2-9 Rocket 4.2 22:08:47 51° E 22:08:47 51° E 22:13:59 10° NNE
Cosmos 2297 Rocket 3.7 22:04:32 10° NW 22:09:30 32° WSW 22:13:57 12° SSW
Meteor 1-21 4.2 22:04:06 10° N 22:09:54 75° E 22:11:24 51° SSE
Cosmos 2360 4.1 22:04:45 10° SSW 22:10:27 79° ESE 22:16:12 10° NNE
SL-08 R/B 4.4 22:10:06 40° SSE 22:12:21 68° E 22:18:29 10° NNE
Cosmos 1802 Rocket 4.1 22:06:51 10° S 22:13:15 82° W 22:19:43 10° N
MetOp-A 4.1 22:15:10 57° E 22:15:27 58° ENE 22:20:43 10° N
Cosmos 2227 4.1 22:13:02 10° NNW 22:18:47 70° ENE 22:19:24 65° ESE
Cosmos 2016 Rocket 3.9 22:19:32 26° S 22:23:12 81° W 22:29:25 10° N
Cosmos 1825 Rocket 3.9 22:19:20 10° NNW 22:23:41 59° W 22:23:59 58° WSW
Tiangong 1 3.5 22:21:24 10° WNW 22:22:45 23° WNW 22:22:45 23° WNW
Cosmos 1743 4.2 22:23:18 28° WSW 22:24:39 37° W 22:28:19 10° N
ASTEX 1 3.3 22:20:16 10° N 22:25:07 80° ENE 22:25:07 80° ENE
RESURS DK-1 3.5 22:27:52 10° NW 22:31:31 38° W 22:31:31 38° W
H-2A R/B 2.7 22:35:02 50° NW 22:35:02 50° NW 22:38:20 10° NNW
Cosmos 1953 Rocket 4.0 22:30:19 10° NNW 22:34:19 59° WNW 22:34:19 59° WNW
Cosmos 1375 Rocket 4.4 22:34:44 67° SSE 22:35:23 73° ESE 22:41:58 10° NNE
USA 245 4.4 22:39:37 73° E 22:39:44 73° ENE 22:46:04 10° N
Envisat 4.1 22:43:51 35° SW 22:44:54 39° W 22:49:39 10° NNW
SL-16 R/B 2.9 22:54:57 45° NNE 22:54:57 45° NNE 22:58:49 10° NNE
ARGOS 3.6 22:57:55 56° N 22:57:55 56° N 23:02:07 10° NNW
Tsikada Rocket 4.1 22:57:40 10° NNW 23:04:03 70° W 23:04:10 70° W
Lacrosse 5 3.5 22:59:56 10° WNW 23:03:17 28° W 23:03:17 28° W
H-2A R/B 3.6 23:08:08 27° N 23:08:08 27° N 23:10:29 10° N
Cosmos 1980 Rocket 4.2 23:02:02 10° WSW 23:06:40 25° WNW 23:11:20 10° N
SPOT 5 4.2 23:07:52 36° W 23:07:52 36° W 23:11:47 10° NNW
Terra 4.0 23:33:40 22° N 23:33:40 22° N 23:35:19 10° N
Cosmos 2263 Rocket 3.5 23:29:23 10° NNW 23:32:32 35° NNW 23:32:32 35° NNW
Cosmos 2322 Rocket 3.6 23:40:22 33° NW 23:40:22 33° NW 23:45:05 10° N
USA 215 3.9 23:53:25 49° NNW 23:53:25 49° NNW 23:58:18 10° NW
